Simultaneous Nadir Overpasses (SNOs) Predictions

Prediction of SNOs between NOAA-20 and METOP-C Satellite Orbit:

Table of predicted SNOs for the next 14.0 days since TLE Epoch: 10/2/2021
Index Date (NOAA-20) Time (NOAA-20) Lat,Lon (NOAA-20) SZA (NOAA-20 ) Date (METOP-C) Time (METOP-C) Lat,Lon (METOP-C) SZA (METOP-C ) Distance(km) Time Diff (sec)
1 10/10/2021 07:11:40 73.33, 62.54 80.09 10/10/2021 07:12:47 73.31, 65.11 80.01 82.05 67
2 10/10/2021 08:02:23 -73.27,-130.02 99.96 10/10/2021 08:03:31 -73.26,-127.68 100.03 74.87 68
3 10/10/2021 08:53:04 73.03, 37.81 79.81 10/10/2021 08:54:15 72.99, 39.07 79.72 41.05 71
4 10/10/2021 09:43:47 -72.97,-154.75 100.24 10/10/2021 09:44:59 -72.94,-153.71 100.31 34.01 72
5 10/10/2021 10:34:29 72.78, 12.96 79.57 10/10/2021 10:35:41 72.76, 13.26 79.54 10.09 72
6 10/10/2021 11:25:12 -72.73,-179.61 100.48 10/10/2021 11:26:25 -72.72,-179.52 100.50 3.28 73
7 10/10/2021 12:15:57 72.69, -12.22 79.50 10/10/2021 12:17:04 72.69, -12.22 79.50 0.64 67
8 10/10/2021 13:06:41 -72.68, 155.11 100.50 10/10/2021 13:07:47 -72.70, 155.11 100.49 1.52 66
9 10/10/2021 13:57:27 72.70, -37.60 79.53 10/10/2021 13:58:26 72.68, -37.60 79.51 2.26 59
10 10/10/2021 14:48:11 -72.69, 129.72 100.46 10/10/2021 14:49:09 -72.68, 129.73 100.48 1.31 58
11 10/10/2021 15:38:56 72.65, -62.89 79.51 10/10/2021 15:39:48 72.66, -62.98 79.52 3.16 52
12 10/10/2021 16:29:40 -72.65, 104.44 100.48 10/10/2021 16:30:31 -72.66, 104.35 100.47 3.32 51
13 10/10/2021 17:20:26 72.66, -88.28 79.55 10/10/2021 17:21:09 72.69, -88.26 79.57 3.40 43
14 10/10/2021 18:11:10 -72.65, 79.05 100.45 10/10/2021 18:11:53 -72.64, 78.97 100.46 2.95 43
15 10/10/2021 19:01:56 72.67,-113.66 79.58 10/10/2021 19:02:31 72.67,-113.63 79.58 1.07 35
16 10/10/2021 19:52:40 -72.66, 53.66 100.42 10/10/2021 19:53:14 -72.67, 53.70 100.41 1.89 34
17 10/10/2021 20:43:26 72.67,-139.05 79.61 10/10/2021 20:43:53 72.65,-139.01 79.59 2.68 27
18 10/10/2021 21:34:10 -72.67, 28.27 100.38 10/10/2021 21:34:36 -72.66, 28.32 100.40 1.92 26
19 10/10/2021 22:24:55 72.63,-164.34 79.59 10/10/2021 22:25:15 72.63,-164.39 79.60 1.94 20
20 10/10/2021 23:15:39 -72.62, 2.99 100.40 10/10/2021 23:15:58 -72.64, 2.94 100.39 2.29 19
21 10/11/2021 00:06:25 72.63, 170.28 79.63 10/11/2021 00:06:37 72.61, 170.23 79.61 2.90 12
22 10/11/2021 00:57:09 -72.63, -22.40 100.37 10/11/2021 00:57:20 -72.62, -22.44 100.38 1.90 11
23 10/11/2021 01:47:55 72.64, 144.89 79.66 10/11/2021 01:47:58 72.64, 144.95 79.66 2.20 3
24 10/11/2021 02:38:39 -72.64, -47.78 100.34 10/11/2021 02:38:41 -72.65, -47.71 100.32 2.81 2
25 10/11/2021 03:29:24 72.60, 119.60 79.64 10/11/2021 03:29:20 72.63, 119.58 79.67 3.32 4
26 10/11/2021 04:20:09 -72.64, -73.17 100.30 10/11/2021 04:20:03 -72.63, -73.09 100.32 2.97 6
27 10/11/2021 05:10:54 72.60, 94.22 79.67 10/11/2021 05:10:42 72.61, 94.20 79.68 0.74 12
28 10/11/2021 06:01:38 -72.60, -98.46 100.32 10/11/2021 06:01:25 -72.61, -98.47 100.31 1.59 13
29 10/11/2021 06:52:24 72.61, 68.83 79.71 10/11/2021 06:52:04 72.59, 68.82 79.69 2.57 20
30 10/11/2021 07:43:08 -72.60,-123.84 100.29 10/11/2021 07:42:47 -72.59,-123.85 100.30 1.30 21
31 10/11/2021 08:33:54 72.62, 43.44 79.74 10/11/2021 08:33:25 72.62, 43.54 79.74 3.41 29
32 10/11/2021 09:24:37 -72.56,-149.13 100.31 10/11/2021 09:24:09 -72.57,-149.23 100.29 3.58 28
33 10/11/2021 10:15:23 72.57, 18.16 79.72 10/11/2021 10:14:47 72.60, 18.16 79.75 3.07 36
34 10/11/2021 11:06:07 -72.57,-174.52 100.28 10/11/2021 11:05:31 -72.56,-174.60 100.28 3.20 36
35 10/11/2021 11:56:53 72.58, -7.23 79.75 10/11/2021 11:56:09 72.58, -7.21 79.76 0.61 44
36 10/11/2021 12:47:37 -72.57, 160.10 100.24 10/11/2021 12:46:52 -72.59, 160.12 100.23 1.73 45
37 10/11/2021 13:38:23 72.59, -32.62 79.79 10/11/2021 13:37:31 72.56, -32.59 79.77 2.81 52
38 10/11/2021 14:29:07 -72.58, 134.71 100.21 10/11/2021 14:28:14 -72.57, 134.74 100.22 1.74 53
39 10/11/2021 15:19:52 72.54, -57.90 79.77 10/11/2021 15:18:53 72.54, -57.97 79.78 2.24 59
40 10/11/2021 16:10:36 -72.54, 109.42 100.23 10/11/2021 16:09:36 -72.55, 109.36 100.21 2.46 60
41 10/11/2021 17:01:22 72.55, -83.29 79.80 10/11/2021 17:00:14 72.57, -83.25 79.83 3.31 68
42 10/11/2021 17:52:06 -72.54, 84.04 100.20 10/11/2021 17:50:58 -72.53, 83.99 100.20 2.10 68
43 10/11/2021 18:42:51 72.50,-108.58 79.78 10/11/2021 18:41:37 72.50,-108.73 79.79 5.05 74
44 10/11/2021 19:33:35 -72.50, 58.75 100.22 10/11/2021 19:32:20 -72.51, 58.61 100.19 4.96 75
45 10/11/2021 20:24:15 72.20,-133.36 79.49 10/11/2021 20:23:04 72.23,-134.61 79.56 42.66 71
46 10/11/2021 21:14:59 -72.20, 33.97 100.50 10/11/2021 21:13:48 -72.19, 32.63 100.47 45.53 71
47 10/11/2021 22:05:39 71.90,-158.16 79.21 10/11/2021 22:04:32 71.90,-160.58 79.28 83.56 67
48 10/11/2021 22:56:23 -71.90, 9.16 100.79 10/11/2021 22:55:15 -71.91, 6.76 100.71 82.89 68



Historial Predications of SNOs between NOAA-20 and METOP-C
